DECAYED

IRIDIUM 33 DEB, 33959 (Decayed)

Orbit data source: Space-Track

IRIDIUM 33 DEB, 33959 was space debris in LEO originally from a launch on Sun, 14 Sep 1997 UTC launched from the Tyuratam Missile And Space Complex (TTMTR). The debris from Iridium 33, an American commercial communications satellite, has been tracked extensively since its accidental collision with the defunct Russian satellite Cosmos 2251 in 2009. This event, occurring at high speed in low Earth orbit (LEO), generated thousands of pieces of space debris, significantly increasing the risk of further collisions. The Iridium 33 debris cloud has impacted space traffic management and orbital debris mitigation strategies, making it a subject of ongoing study in space situational awareness.

Not visible in the next 10 days
Identifier
33959, 1997-051BU
Orbit
Decayed
Country
Flag of USUS
Related business
Manufacturer
Unknown
Mission
Decayed spacecraft
Bus & Motor
Unknown
Mass
Unknown
Launch date (UTC)
1997-09-14 (28 years ago)
Launch vehicle
Unknown
Launch site
Tyuratam Missile And Space Complex (TTMTR)
Object type
Payload
Rocket body
Debris
Shape & HBR
Unknown shape, 0.1 m
Radar Cross Section
Small (<0.1 m²)

Expand to show TLE details & history
Last TLE update: 10 months ago

TLE from 10 months ago
0 IRIDIUM 33 DEB
1 33959U 97051BU  25016.32058440  .26957429 -14030-5  19184-1 0  9993
2 33959  86.3321 197.3219 0015367 339.2781  20.7888 16.15824197832056
Epoch: 2025-01-16T07:41Z
TLE epoch observation values (Epoch: 2025-01-16T07:41:38.492Z)
Latitude
-0.00005°
Longitude
-34.08875°
Altitude
224.721 km
Speed
7.777 km/s
True Right ascension
13h 09m 17s
True Declination
0° 00' 00"
Sunlit
Object was in daylight at epoch
Visualization orbit readout
Latitude
Unknown
Longitude
Unknown
Altitude
Unknown
Speed
Unknown
Apparent Right ascension
Unknown
Apparent Declination
Unknown
Sunlit
N/A
Visualization observer readout
Local Sidereal Time
15:43:19
Azimuth
Unknown
Elevation
Unknown
Doppler factor
Unknown
Orbital elements
Apogee altitude
237.779 km
Perigee altitude
217.477 km
Semi-major axis
6,605.765 km
Eccentricity
0.00154
Inclination
86.3321°
RAAN
197.3219°
Arg. of periapsis
339.2781°
True anomaly
20.85141°
Mean anomaly
20.7888°
Eccentric anomaly
20.82009°
Mean motion
4.04258 °/min
Orbital period
89.05 mins
BSTAR
0.019184
Loading maneuver chart data...
Computing Atmospheric mass density...
Loading historical data...
Loading historical data...
Loading historical data...
Loading historical data...
Loading historical data...
Loading historical data...
Loading historical data...

Documentation

Showing up to 5 results
|